Location: *
(43.9905°S, 176.4941°W)
Time: 21:15:58
(UTC+00:00)

Cosmos 841 Rocket - Pass Details

Date: 08 December 2019
Orbit: 748 x 771 km, 74.0° (Epoch: 18 January)

Event Time Altitude Azimuth Distance (km) Brightness Sun altitude
Exits shadow 10:58:53 48° 326° (NW) 990 3.7 -22.7°
Maximum altitude 11:00:21 79° 249° (WSW) 784 3.5 -22.8°
Drops below altitude 10° 11:05:38 10° 162° (SSE) 2,322 6.9 -22.9°
Sets 11:08:02 0° 160° (SSE) 3,258 7.8 -23.0°
